When you browse on this site, cookies collect data to enhance your experience and personalize the content and advertising you see.
Visit our Privacy Policy to learn more. By continuing to use the site, you agree to this use of cookies and data.
  • In Romania
  • List of Countries
  • For 7 days
  • Water Temperature
  • Satellite Maps
  • Weather Map
  • Weather Widgets
  • user-avatar
    Login

    Hourly Weather Kalgoorlie

    Today, 25 June, Tuesday

    Time Temperature Precipitation Wind Pressure Humidity
    00:00 +12°C° 0 mm 1 mps 735 mmHg 74%
    01:00 +11°C° 0 mm 1 mps 735 mmHg 76%
    02:00 +10°C° 0 mm 0 mps 734 mmHg 78%
    03:00 +11°C° 0 mm 1 mps 735 mmHg 78%
    04:00 +10°C° 0 mm 1 mps 735 mmHg 78%
    05:00 +10°C° 0 mm 1 mps 735 mmHg 78%
    06:00 +10°C° 0 mm 2 mps 735 mmHg 76%
    07:00 +10°C° 0 mm 2 mps 735 mmHg 74%
    08:00 +11°C° 0 mm 3 mps 736 mmHg 72%
    09:00 +13°C° 0 mm 3 mps 736 mmHg 65%
    10:00 +14°C° 0 mm 4 mps 735 mmHg 58%
    11:00 +16°C° 0 mm 5 mps 735 mmHg 51%
    12:00 +16°C° 0 mm 5 mps 735 mmHg 48%
    13:00 +17°C° 0 mm 5 mps 734 mmHg 45%
    14:00 +19°C° 0 mm 4 mps 734 mmHg 41%
    15:00 +18°C° 0 mm 4 mps 733 mmHg 45%
    16:00 +17°C° 0 mm 3 mps 733 mmHg 50%
    17:00 +17°C° 0 mm 2 mps 733 mmHg 55%
    18:00 +16°C° 0 mm 3 mps 733 mmHg 57%
    19:00 +16°C° 0 mm 3 mps 732 mmHg 58%
    20:00 +16°C° 0 mm 3 mps 732 mmHg 60%
    21:00 +15°C° 0 mm 4 mps 732 mmHg 60%
    22:00 +15°C° 0 mm 4 mps 732 mmHg 59%
    23:00 +15°C° 0 mm 4 mps 731 mmHg 58%

    Tomorrow, 26 June, Wednesday

    Time Temperature Precipitation Wind Pressure Humidity
    00:00 +15°C° 0 mm 4 mps 731 mmHg 59%
    01:00 +14°C° 0 mm 5 mps 730 mmHg 60%
    02:00 +14°C° 0 mm 5 mps 729 mmHg 61%
    03:00 +14°C° 0 mm 6 mps 729 mmHg 59%
    04:00 +15°C° 0 mm 6 mps 729 mmHg 57%
    05:00 +15°C° 0 mm 7 mps 729 mmHg 54%
    06:00 +15°C° 0 mm 7 mps 729 mmHg 62%
    07:00 +15°C° 0 mm 7 mps 729 mmHg 71%
    08:00 +15°C° 0 mm 7 mps 729 mmHg 79%
    09:00 +17°C° 0 mm 8 mps 729 mmHg 69%
    10:00 +18°C° 0 mm 9 mps 729 mmHg 59%
    11:00 +21°C° 0 mm 10 mps 729 mmHg 49%
    12:00 +22°C° 0 mm 10 mps 728 mmHg 47%
    13:00 +22°C° 0 mm 10 mps 727 mmHg 45%
    14:00 +23°C° 0 mm 9 mps 726 mmHg 44%
    15:00 +21°C° 1.1 mm 9 mps 727 mmHg 58%
    16:00 +18°C° 1.1 mm 9 mps 727 mmHg 72%
    17:00 +16°C° 1.1 mm 8 mps 727 mmHg 86%
    18:00 +16°C° 0.9 mm 8 mps 727 mmHg 84%
    19:00 +16°C° 0.9 mm 8 mps 727 mmHg 81%
    20:00 +16°C° 0.9 mm 8 mps 726 mmHg 79%
    21:00 +17°C° 0.1 mm 8 mps 726 mmHg 77%
    22:00 +17°C° 0.1 mm 8 mps 726 mmHg 76%
    23:00 +17°C° 0.1 mm 9 mps 726 mmHg 74%

    Day after tomorrow, 27 June, Thursday

    Time Temperature Precipitation Wind Pressure Humidity
    00:00 +17°C° 0 mm 9 mps 726 mmHg 76%
    01:00 +16°C° 0 mm 9 mps 725 mmHg 78%
    02:00 +16°C° 0 mm 9 mps 725 mmHg 80%
    03:00 +15°C° 0 mm 8 mps 725 mmHg 82%
    04:00 +15°C° 0 mm 8 mps 725 mmHg 84%
    05:00 +15°C° 0 mm 7 mps 725 mmHg 85%
    06:00 +14°C° 0.1 mm 7 mps 726 mmHg 85%
    07:00 +14°C° 0.1 mm 6 mps 726 mmHg 84%
    08:00 +14°C° 0.1 mm 5 mps 726 mmHg 84%
    09:00 +14°C° 0.1 mm 5 mps 726 mmHg 83%
    10:00 +14°C° 0.1 mm 5 mps 727 mmHg 82%
    11:00 +14°C° 0.1 mm 5 mps 727 mmHg 81%
    12:00 +15°C° 0.1 mm 6 mps 726 mmHg 76%
    13:00 +15°C° 0.1 mm 7 mps 726 mmHg 70%
    14:00 +16°C° 0.1 mm 7 mps 725 mmHg 64%
    15:00 +16°C° 0 mm 7 mps 726 mmHg 65%
    16:00 +15°C° 0 mm 6 mps 726 mmHg 66%
    17:00 +15°C° 0 mm 6 mps 727 mmHg 67%
    18:00 +14°C° 0 mm 5 mps 727 mmHg 69%
    19:00 +13°C° 0 mm 5 mps 727 mmHg 71%
    20:00 +13°C° 0 mm 5 mps 727 mmHg 72%
    21:00 +12°C° 0 mm 5 mps 728 mmHg 74%
    22:00 +10°C° 0 mm 5 mps 728 mmHg 75%
    23:00 +10°C° 0 mm 5 mps 728 mmHg 77%

    28 June, Friday

    Time Temperature Precipitation Wind Pressure Humidity
    00:00 +9°C° 0 mm 5 mps 728 mmHg 79%
    01:00 +9°C° 0 mm 6 mps 729 mmHg 81%
    02:00 +8°C° 0 mm 6 mps 729 mmHg 84%
    03:00 +8°C° 0.2 mm 6 mps 729 mmHg 82%
    04:00 +8°C° 0.2 mm 6 mps 730 mmHg 81%
    05:00 +7°C° 0.2 mm 5 mps 731 mmHg 79%
    06:00 +7°C° 0 mm 6 mps 731 mmHg 78%
    07:00 +7°C° 0 mm 6 mps 732 mmHg 77%
    08:00 +5°C° 0 mm 7 mps 732 mmHg 76%
    09:00 +6°C° 0 mm 7 mps 733 mmHg 67%
    10:00 +9°C° 0 mm 7 mps 734 mmHg 57%
    11:00 +10°C° 0 mm 8 mps 734 mmHg 48%
    12:00 +10°C° 0 mm 8 mps 734 mmHg 46%
    13:00 +10°C° 0 mm 7 mps 734 mmHg 44%
    14:00 +11°C° 0 mm 7 mps 734 mmHg 42%
    15:00 +10°C° 0 mm 6 mps 734 mmHg 44%
    16:00 +10°C° 0 mm 6 mps 735 mmHg 47%
    17:00 +9°C° 0 mm 5 mps 735 mmHg 50%
    18:00 +8°C° 0 mm 5 mps 736 mmHg 53%
    19:00 +8°C° 0 mm 5 mps 736 mmHg 57%
    20:00 +7°C° 0 mm 5 mps 737 mmHg 61%
    21:00 +7°C° 0 mm 4 mps 737 mmHg 63%
    22:00 +6°C° 0 mm 4 mps 737 mmHg 64%
    23:00 +7°C° 0 mm 3 mps 738 mmHg 66%

    29 June, Saturday

    Time Temperature Precipitation Wind Pressure Humidity
    00:00 +5°C° 0 mm 3 mps 737 mmHg 67%
    01:00 +5°C° 0 mm 3 mps 737 mmHg 68%
    02:00 +5°C° 0 mm 3 mps 737 mmHg 70%
    03:00 +5°C° 0 mm 2 mps 737 mmHg 71%
    04:00 +5°C° 0 mm 2 mps 737 mmHg 73%
    05:00 +5°C° 0 mm 2 mps 737 mmHg 74%
    06:00 +5°C° 0 mm 2 mps 737 mmHg 72%
    07:00 +7°C° 0 mm 1 mps 738 mmHg 71%
    08:00 +7°C° 0 mm 1 mps 738 mmHg 69%
    09:00 +8°C° 0 mm 1 mps 738 mmHg 63%
    10:00 +10°C° 0 mm 1 mps 738 mmHg 57%
    11:00 +10°C° 0 mm 2 mps 738 mmHg 51%
    12:00 +12°C° 0 mm 2 mps 737 mmHg 47%
    13:00 +12°C° 0 mm 2 mps 737 mmHg 43%
    14:00 +12°C° 0 mm 3 mps 736 mmHg 39%
    15:00 +12°C° 0 mm 3 mps 736 mmHg 40%
    16:00 +11°C° 0 mm 3 mps 736 mmHg 41%
    17:00 +12°C° 0 mm 2 mps 736 mmHg 42%
    18:00 +10°C° 0 mm 2 mps 736 mmHg 44%
    19:00 +10°C° 0 mm 2 mps 736 mmHg 45%
    20:00 +9°C° 0 mm 2 mps 736 mmHg 47%
    21:00 +9°C° 0 mm 2 mps 736 mmHg 47%
    22:00 +9°C° 0 mm 2 mps 736 mmHg 48%
    23:00 +8°C° 0 mm 3 mps 736 mmHg 49%

    30 June, Sunday

    Time Temperature Precipitation Wind Pressure Humidity
    00:00 +8°C° 0 mm 3 mps 735 mmHg 49%
    01:00 +8°C° 0 mm 2 mps 735 mmHg 50%
    02:00 +7°C° 0 mm 2 mps 735 mmHg 51%
    03:00 +7°C° 0 mm 2 mps 735 mmHg 52%
    04:00 +7°C° 0 mm 2 mps 734 mmHg 52%
    05:00 +7°C° 0 mm 2 mps 734 mmHg 53%
    06:00 +7°C° 0 mm 3 mps 734 mmHg 52%
    07:00 +7°C° 0 mm 3 mps 734 mmHg 52%
    08:00 +7°C° 0 mm 3 mps 734 mmHg 51%
    09:00 +8°C° 0 mm 4 mps 734 mmHg 46%
    10:00 +10°C° 0 mm 5 mps 734 mmHg 40%
    11:00 +13°C° 0 mm 6 mps 733 mmHg 34%
    12:00 +14°C° 0 mm 6 mps 733 mmHg 32%
    13:00 +14°C° 0 mm 6 mps 732 mmHg 30%
    14:00 +15°C° 0 mm 6 mps 731 mmHg 28%
    15:00 +14°C° 0 mm 5 mps 731 mmHg 31%
    16:00 +13°C° 0 mm 4 mps 731 mmHg 33%
    17:00 +12°C° 0 mm 3 mps 731 mmHg 35%
    18:00 +12°C° 0 mm 3 mps 731 mmHg 37%
    19:00 +11°C° 0 mm 3 mps 731 mmHg 38%
    20:00 +10°C° 0 mm 3 mps 731 mmHg 39%
    21:00 +10°C° 0 mm 3 mps 731 mmHg 40%
    22:00 +9°C° 0 mm 3 mps 731 mmHg 42%
    23:00 +8°C° 0 mm 4 mps 731 mmHg 43%
    Show more